Location: *
(41.2915°S, 157.0501°W)
Time: 01:12:12
(UTC+00:00)

Daily predictions for brighter satellites

Satellite Brightness Start Highest point End
(mag) Time Altitude Azimuth Time Altitude Azimuth Time Altitude Azimuth
Cosmos 1953 Rocket 3.6 03:35:30 10° N 03:39:52 61° E 03:44:16 10° SSE
Envisat 3.9 03:35:00 10° S 03:40:01 54° WSW 03:44:58 10° NNW
Cosmos-2242 3.8 03:35:54 10° SSW 03:40:11 58° W 03:44:26 10° N
Lacrosse 5 4.0 03:37:32 10° SW 03:40:31 15° SSW 03:43:30 10° SSE
Cosmos 2082 Rocket 3.9 03:38:04 10° ENE 03:40:35 13° E 03:43:05 10° ESE
ATLAS 2AS CENTAUR R/B 3.3 03:36:51 10° SSW 03:43:20 38° SE 03:50:10 10° ENE
NOAA 11 4.2 03:39:35 10° SSE 03:45:08 84° ENE 03:50:37 10° NNW
H-2A R/B 4.0 03:44:33 10° S 03:48:14 43° WSW 03:51:55 10° NW
Cosmos 968 Rocket 4.4 03:43:47 10° S 03:48:19 28° ESE 03:52:48 10° ENE
Cosmos 1939 Rocket 3.5 03:45:48 10° SSE 03:49:23 33° E 03:52:54 10° NNE
Lacrosse 4 Rocket 2.8 03:46:33 10° NW 03:50:29 38° SW 03:54:34 10° SSE
CZ-4B R/B 4.1 03:46:14 10° SSE 03:50:46 71° ENE 03:55:07 10° N
NOSS 3-4 (A) 3.9 03:44:10 10° SW 03:51:08 75° WNW 03:57:13 10° NNE
NOSS 3-4 (C) 3.9 03:44:11 10° SW 03:51:10 76° WNW 03:57:18 10° NNE
GPS 2-04 Rocket1 3.9 03:48:58 10° WNW 03:52:22 32° N 03:55:39 10° ENE
Cosmos 1697 Rocket 3.5 03:49:23 10° S 03:54:22 30° SE 03:59:19 10° ENE
Meteor 1-31 Rocket 2.8 03:54:08 10° SSE 03:58:09 82° ENE 04:02:06 10° N
Cosmos 2151 4.1 03:55:44 10° NE 03:59:11 23° E 04:02:40 10° SE
CZ-4B R/B 4.0 03:57:38 10° SE 04:00:30 21° E 04:03:24 10° NE
Cosmos 1782 4.2 03:59:13 10° SSE 04:02:05 19° ESE 04:04:55 10° ENE
Cosmos 1741 Rocket 4.4 03:58:01 10° SSW 04:03:21 70° WNW 04:08:35 10° N
COSMOS 2406 3.9 04:01:21 10° NNE 04:06:24 34° ENE 04:11:28 10° SE
Cosmos 1153 Rocket 4.5 04:00:25 10° S 04:06:41 70° E 04:12:50 10° NNE
Cosmos 1605 Rocket 4.4 04:04:44 10° SSW 04:11:05 68° W 04:17:15 10° N
Cosmos 1842 Rocket 3.7 04:07:42 10° S 04:12:09 54° E 04:16:29 10° NNE
Landsat 5 3.7 04:11:06 10° NNE 04:15:30 54° ESE 04:19:52 10° S
SJ-7 4.4 04:15:39 10° SSE 04:19:53 88° W 04:23:58 10° NNW
Meteor 2-3 Rocket 3.8 04:14:42 10° N 04:20:10 56° E 04:25:44 10° SSE
Cosmos 1076 Rocket 3.6 04:16:17 10° N 04:20:35 55° E 04:24:55 10° SSE
USA 215 3.2 04:14:29 10° NE 04:21:05 79° SE 04:27:43 10° SW
USA 281 3.5 04:14:41 10° SE 04:21:07 48° ENE 04:27:27 10° N
CZ-2C R/B 4.3 04:18:06 10° S 04:22:33 39° WSW 04:27:04 10° NW
CZ-4C R/B 3.5 04:23:27 10° NE 04:26:20 32° ESE 04:29:18 10° S
RESURS DK-1 4.4 04:25:44 10° SSE 04:26:54 13° SSE 04:26:54 13° SSE
USA 306 4.4 04:30:05 10° SSW 04:33:16 20° SSE 04:34:06 19° SE
Cosmos 2221 3.0 04:29:29 10° SSW 04:33:55 65° W 04:38:17 10° N
Cosmos 1302 Rocket 4.1 04:29:13 10° NNW 04:34:26 82° WSW 04:39:46 10° SSE
USA 307 4.5 04:32:30 10° SSW 04:35:37 19° SSE 04:36:20 19° SSE
BREEZE M DEB (TANK) 1.5 04:35:15 10° WNW 04:37:16 87° SW 04:37:40 56° SE
Meteor 1-26 Rocket 4.4 04:34:17 10° S 04:40:22 62° ESE 04:46:18 10° NNE
Cosmos 1833 Rocket 2.8 04:34:57 10° NNW 04:40:36 77° WSW 04:46:20 10° SSE
Cosmos 2173 Rocket 4.0 04:37:48 10° S 04:44:16 80° E 04:50:33 10° N
Cosmos 2016 Rocket 4.1 04:39:17 10° S 04:45:24 53° ESE 04:51:31 10° NNE
Aureole 1 Rocket 4.3 04:38:23 10° S 04:45:39 47° ESE 04:51:23 10° NE
Cosmos 1486 Rocket 4.4 04:41:55 10° S 04:47:01 41° ESE 04:50:39 18° NE
Cosmos 1802 Rocket 4.0 04:44:49 10° S 04:51:17 71° E 04:57:44 10° NNE
OAO 2 Rocket 4.3 04:49:10 10° WNW 04:54:11 41° N 04:57:02 23° NE
Cosmos 2233 Rocket 4.4 04:48:26 10° S 04:54:13 37° ESE 04:59:58 10° NE
ATLAS 3B CENTAUR R/B 4.1 04:48:54 10° NW 04:56:25 26° N 05:00:16 15° NE
Cosmos 1992 Rocket 3.9 04:51:52 10° N 04:57:04 70° ENE 05:00:15 24° SSE
CZ-2D R/B 3.1 04:55:22 24° SSE 04:57:37 85° ENE 05:01:27 10° NNW
Cosmos 1864 Rocket 4.4 04:52:24 10° S 04:58:35 63° E 05:04:40 10° NNE
SL-08 R/B 4.4 04:55:34 10° S 05:01:49 60° E 05:07:52 10° NNE
BREEZE-M DEB (TANK) 2.4 04:58:50 10° WSW 05:05:01 66° NW 05:05:50 45° NNE
USA 308 4.4 05:02:50 10° SSW 05:05:38 24° S 05:05:38 24° S
Cosmos 1459 Rocket 4.4 05:07:57 10° SSW 05:14:03 62° W 05:20:11 10° N
H-2A R/B 2.4 05:11:47 10° S 05:16:44 61° WSW 05:21:35 10° NNW
Cosmos 1812 2.8 05:14:02 10° S 05:17:56 77° W 05:21:46 10° N
Cosmos 1980 Rocket 2.0 05:12:51 10° SSW 05:18:31 68° ESE 05:20:12 45° NE
GEOS 3 Rocket 3.6 05:17:59 41° SSE 05:19:55 84° SW 05:25:09 10° NW
Cosmos 2369 3.6 05:15:59 10° SSW 05:21:46 84° ESE 05:25:09 26° NNE
SMAP 4.0 05:18:39 10° S 05:23:11 47° WSW 05:27:39 10° NW
Cosmos 2082 Rocket 2.2 05:18:11 10° NNW 05:23:50 82° WSW 05:26:12 37° SSE
Cosmos 2322 Rocket 4.4 05:20:28 10° S 05:20:47 11° S 05:20:47 11° S
Cosmos 2061 Rocket 4.0 05:18:44 10° S 05:25:13 88° W 05:31:33 10° N
Lacrosse 5 3.9 05:22:24 10° SSW 05:24:44 15° S 05:24:44 15° S
ARGOS 3.0 05:23:26 31° SSE 05:26:09 85° ENE 05:31:33 10° NNW
GPS 2-04 Rocket1 4.3 05:27:44 10° WNW 05:30:10 26° NNW 05:30:10 26° NNW
ATLAS 2AS CENTAUR R/B 3.5 05:27:34 10° SW 05:34:31 55° WNW 05:41:50 10° NNE
Radarsat Rocket 4.5 05:29:17 10° SSE 05:36:30 88° WSW 05:44:35 10° NNW
Cosmos 1697 Rocket 3.9 05:33:07 10° SW 05:38:25 41° WNW 05:43:41 10° N
CZ-2C R/B 3.8 05:39:21 10° NNW 05:39:51 12° NNW 05:39:51 12° NNW
Cosmos 1725 Rocket 4.5 05:38:34 10° SSW 05:44:45 60° W 05:50:55 10° N
SL-16 R/B 4.3 05:56:56 10° SSW 05:58:02 15° S 05:58:02 15° S
